Weather History for KGHG - October, 2011

Change the Weather History Date:

Saturday, October 1, 2011

  Actual Average (KPYM) Record (KPYM)
Temperature  
Mean Temperature 68 °F -  
Max Temperature 75 °F 68 °F 84 °F (1986)
Min Temperature 62 °F 44 °F 31 °F (1992)
Cooling Degree Days 4    
Growing Degree Days 18 (Base 50)    
Moisture  
Dew Point 64 °F    
Average Humidity 90    
Maximum Humidity 100    
Minimum Humidity 73    
Precipitation  
Precipitation 0.00 in - - ()
Sea Level Pressure  
Sea Level Pressure 29.64 in    
Wind  
Wind Speed 5 mph (East)    
Max Wind Speed 15 mph    
Max Gust Speed 26 mph    
Visibility 9 miles    
Events Rain    
Averages and records for this station are not official NWS values.
T = Trace of Precipitation, MM = Missing Value Source: NWS Daily Summary

Daily Weather History Graph

Daily Weather History Graph

Search for Another Location

Airport or City:

Trip Planner

Search our weather history database for the weather conditions in past years. The results will help you decide how hot, cold, wet, or windy it might be!

Date:

Astronomy

Oct. 01, 2011 Rise Set
Actual Time 6:39 AM EDT 6:24 PM EDT
Civil Twilight 6:11 AM EDT 6:52 PM EDT
Nautical Twilight 5:39 AM EDT 7:25 PM EDT
Astronomical Twilight 5:06 AM EDT 7:57 PM EDT
Moon 11:48 AM EDT (10/1) 9:12 PM EDT (10/1)
Length of Visible Light 12h 41m
Length of Day
11h 45m
Waxing Crescent, 24% of the Moon is Illuminated
Oct 1
Waxing Crescent
Oct 3
First Quarter
Oct 11
Full
Oct 19
Last Quarter
Oct 26
New

Hourly Weather History & Observations

Time (EDT) Temp. Dew Point Humidity Pressure Visibility Wind Dir Wind Speed Gust Speed Precip Events Conditions
12:15 AM 64.4 °F 64.4 °F 100% 29.68 in 10.0 mi ESE 5.8 mph - N/A   Scattered Clouds
12:35 AM 64.4 °F 62.6 °F 94% 29.68 in 10.0 mi ESE 5.8 mph - N/A   Partly Cloudy
12:55 AM 64.4 °F 64.4 °F 100% 29.68 in 10.0 mi SE 5.8 mph - N/A   Scattered Clouds
1:15 AM 64.4 °F 64.4 °F 100% 29.68 in 10.0 mi South 4.6 mph - N/A   Scattered Clouds
1:35 AM 66.2 °F 64.4 °F 94% 29.69 in 10.0 mi SSW 3.5 mph - N/A   Mostly Cloudy
1:55 AM 66.2 °F 64.4 °F 94% 29.69 in 10.0 mi Calm Calm - N/A   Overcast
2:15 AM 66.2 °F 64.4 °F 94% 29.68 in 10.0 mi Calm Calm - N/A   Overcast
2:35 AM 66.2 °F 64.4 °F 94% 29.67 in 10.0 mi Calm Calm - N/A   Overcast
2:55 AM 66.2 °F 64.4 °F 94% 29.66 in 10.0 mi Calm Calm - N/A   Overcast
3:15 AM 66.2 °F 64.4 °F 94% 29.66 in 10.0 mi Calm Calm - N/A   Overcast
3:35 AM 66.2 °F 62.6 °F 88% 29.66 in 10.0 mi North 4.6 mph - N/A   Overcast
3:55 AM 66.2 °F 60.8 °F 83% 29.66 in 10.0 mi Calm Calm - N/A   Overcast
4:15 AM 64.4 °F 60.8 °F 88% 29.65 in 10.0 mi North 6.9 mph - N/A   Overcast
4:35 AM 64.4 °F 60.8 °F 88% 29.64 in 10.0 mi North 5.8 mph - N/A   Overcast
5:15 AM 64.4 °F 60.8 °F 88% 29.65 in 10.0 mi North 3.5 mph - N/A   Overcast
5:35 AM 64.4 °F 60.8 °F 88% 29.64 in 9.0 mi NW 5.8 mph - N/A Rain Rain
5:55 AM 62.6 °F 60.8 °F 94% 29.65 in 1.2 mi North 4.6 mph - N/A Rain Heavy Rain
6:15 AM 64.4 °F 62.6 °F 94% 29.64 in 3.0 mi NE 5.8 mph - N/A   Light Drizzle
6:35 AM 62.6 °F 62.6 °F 100% 29.64 in 5.0 mi NNE 4.6 mph - N/A   Scattered Clouds
6:55 AM 64.4 °F 62.6 °F 94% 29.64 in 10.0 mi NNE 5.8 mph - N/A   Partly Cloudy
7:15 AM 64.4 °F 62.6 °F 94% 29.64 in 10.0 mi NNE 4.6 mph - N/A   Mostly Cloudy
7:35 AM 64.4 °F 62.6 °F 94% 29.64 in 10.0 mi NNE 6.9 mph - N/A   Overcast
7:55 AM 64.4 °F 62.6 °F 94% 29.64 in 7.0 mi NE 8.1 mph - N/A Rain Rain
8:15 AM 64.4 °F 62.6 °F 94% 29.64 in 3.0 mi NE 5.8 mph - N/A Rain Rain
8:35 AM 64.4 °F 62.6 °F 94% 29.61 in 4.0 mi NE 12.7 mph 19.6 mph N/A Rain Light Rain
8:55 AM 64.4 °F 62.6 °F 94% 29.58 in 10.0 mi NE 15.0 mph 19.6 mph N/A   Light Drizzle
9:15 AM 64.4 °F 64.4 °F 100% 29.59 in 9.0 mi ENE 10.4 mph 26.5 mph N/A   Light Drizzle
9:35 AM 64.4 °F 64.4 °F 100% 29.61 in 10.0 mi ENE 6.9 mph - N/A   Partly Cloudy
10:15 AM 66.2 °F 64.4 °F 94% 29.62 in 10.0 mi ESE 3.5 mph - N/A   Overcast
10:35 AM 66.2 °F 64.4 °F 94% 29.62 in 10.0 mi ESE 6.9 mph - N/A   Mostly Cloudy
10:55 AM 66.2 °F 64.4 °F 94% 29.62 in 10.0 mi ESE 6.9 mph - N/A   Overcast
11:15 AM 69.8 °F 66.2 °F 88% 29.62 in 10.0 mi ESE 8.1 mph - N/A   Overcast
11:35 AM 68.0 °F 66.2 °F 94% 29.63 in 10.0 mi SE 5.8 mph - N/A   Overcast
11:55 AM 68.0 °F 66.2 °F 94% 29.63 in 10.0 mi ESE 9.2 mph - N/A   Overcast
12:15 PM 69.8 °F 66.2 °F 88% 29.62 in 10.0 mi SSE 4.6 mph - N/A   Overcast
12:35 PM 69.8 °F 66.2 °F 88% 29.62 in 10.0 mi East 8.1 mph - N/A   Overcast
12:55 PM 69.8 °F 66.2 °F 88% 29.62 in 10.0 mi ESE 3.5 mph - N/A   Mostly Cloudy
1:15 PM 71.6 °F 66.2 °F 83% 29.61 in 10.0 mi ESE 6.9 mph - N/A   Mostly Cloudy
1:35 PM 69.8 °F 66.2 °F 88% 29.61 in 10.0 mi SE 6.9 mph - N/A   Scattered Clouds
1:55 PM 73.4 °F 68.0 °F 83% 29.60 in 9.0 mi SE 4.6 mph - N/A   Partly Cloudy
2:15 PM 73.4 °F 66.2 °F 78% 29.60 in 10.0 mi South 5.8 mph - N/A   Partly Cloudy
2:35 PM 75.2 °F 66.2 °F 73% 29.60 in 10.0 mi SSE 5.8 mph - N/A   Partly Cloudy
2:55 PM 75.2 °F 66.2 °F 73% 29.60 in 10.0 mi SSE 5.8 mph - N/A   Partly Cloudy
3:15 PM 75.2 °F 68.0 °F 78% 29.60 in 10.0 mi South 4.6 mph - N/A   Scattered Clouds
3:35 PM 75.2 °F 66.2 °F 73% 29.61 in 10.0 mi SE 6.9 mph - N/A   Scattered Clouds
4:15 PM 75.2 °F 66.2 °F 73% 29.62 in 10.0 mi SSE 5.8 mph - N/A   Scattered Clouds
4:35 PM 73.4 °F 66.2 °F 78% 29.63 in 10.0 mi SE 4.6 mph - N/A   Partly Cloudy
4:55 PM 73.4 °F 66.2 °F 78% 29.63 in 10.0 mi ESE 4.6 mph - N/A   Clear
5:35 PM 71.6 °F 64.4 °F 78% 29.65 in 10.0 mi North 4.6 mph - N/A   Clear
5:55 PM 69.8 °F 64.4 °F 83% 29.65 in 10.0 mi Calm Calm - N/A   Clear
10:15 PM 64.4 °F 64.4 °F 100% 29.74 in 10.0 mi SSW 4.6 mph - N/A   Mostly Cloudy
10:35 PM 66.2 °F 64.4 °F 94% 29.75 in 10.0 mi South 4.6 mph - N/A   Mostly Cloudy
10:55 PM 64.4 °F 64.4 °F 100% 29.75 in 10.0 mi Calm Calm - N/A   Scattered Clouds
11:15 PM 64.4 °F 64.4 °F 100% 29.75 in 9.0 mi SSW 3.5 mph - N/A   Partly Cloudy
11:35 PM 64.4 °F 62.6 °F 94% 29.76 in 5.0 mi Calm Calm - N/A   Clear
11:55 PM 64.4 °F 62.6 °F 94% 29.76 in 8.0 mi Calm Calm - N/A   Partly Cloudy